timestamp,surface_pressure_avg,surface_temp_avg,battery_voltage,lat,long
2021-04-29 00:09:01+00:00,387.9078,4.3,12.81,47.84626,-54.09684
2021-04-29 00:19:01+00:00,387.1229,4.38,12.65,47.84626,-54.09684
2021-04-29 00:29:01+00:00,389.4062,4.43,12.65,47.84626,-54.09684
2021-04-29 00:39:01+00:00,396.9446,4.49,12.65,47.84626,-54.09684
2021-04-29 00:49:01+00:00,398.3546,4.5,12.65,47.84626,-54.09684
2021-04-29 00:59:01+00:00,393.75800000000004,4.5,12.65,47.84626,-54.09684
2021-04-29 01:09:01+00:00,395.3513,4.5,12.65,47.84626,-54.09684
2021-04-29 01:19:01+00:00,399.5696,4.5,12.65,47.84626,-54.09684
2021-04-29 01:29:01+00:00,394.7213,4.5,12.65,47.84626,-54.09684
2021-04-29 01:39:01+00:00,391.8829,4.5,12.65,47.84626,-54.09684
2021-04-29 01:49:01+00:00,393.9579,4.5,12.65,47.84626,-54.09684
2021-04-29 01:59:01+00:00,390.2746,4.49,12.65,47.84626,-54.09684
2021-04-29 02:09:01+00:00,378.658,4.47,12.65,47.84626,-54.09684
2021-04-29 02:19:00+00:00,376.4229,4.43,12.65,47.84626,-54.09684
2021-04-29 02:29:00+00:00,374.8796,4.4,12.65,47.84626,-54.09684
2021-04-29 02:39:00+00:00,363.1629,4.47,12.65,47.84626,-54.09684
2021-04-29 02:49:00+00:00,352.6962,4.5,12.65,47.84626,-54.09684
2021-04-29 02:59:00+00:00,350.228,4.5,12.65,47.84626,-54.09684
2021-04-29 03:09:00+00:00,342.7479,4.5,12.65,47.84626,-54.09684
2021-04-29 03:19:01+00:00,330.1763,4.55,12.65,47.84626,-54.09684
2021-04-29 03:29:01+00:00,320.8663,4.5,12.65,47.84626,-54.09684
2021-04-29 03:39:01+00:00,312.178,4.44,12.65,47.84626,-54.09684
2021-04-29 03:49:01+00:00,297.5581,4.4,12.65,47.84626,-54.09684
2021-04-29 03:59:01+00:00,284.2347,4.4,12.65,47.84626,-54.09684
2021-04-29 04:09:01+00:00,274.2014,4.44,12.65,47.84626,-54.09684
2021-04-29 04:19:01+00:00,262.7631,4.5,12.65,47.84626,-54.09684
2021-04-29 04:29:01+00:00,249.0781,4.5,12.65,47.84626,-54.09684
2021-04-29 04:39:01+00:00,240.0031,4.5,12.65,47.84626,-54.09684
2021-04-29 04:49:01+00:00,232.6114,4.47,12.65,47.84626,-54.09684
2021-04-29 04:59:01+00:00,220.1898,4.4,12.65,47.84626,-54.09684
2021-04-29 05:09:01+00:00,208.5581,4.4,12.65,47.84626,-54.09684
2021-04-29 05:19:01+00:00,200.9915,4.4,12.57,47.84626,-54.09684
2021-04-29 05:29:01+00:00,193.6614,4.42,12.57,47.84626,-54.09684
2021-04-29 05:39:01+00:00,185.4948,4.57,12.57,47.84626,-54.09684
2021-04-29 05:49:01+00:00,178.2231,4.63,12.57,47.84626,-54.09684
2021-04-29 05:59:01+00:00,172.4348,4.7,12.57,47.84626,-54.09684
2021-04-29 06:09:01+00:00,168.8398,4.78,12.57,47.84626,-54.09684
2021-04-29 06:19:01+00:00,169.5865,4.8,12.57,47.84626,-54.09684
2021-04-29 06:29:01+00:00,169.0732,4.81,12.57,47.84626,-54.09684
2021-04-29 06:39:01+00:00,163.9831,4.9,12.57,47.84626,-54.09684
2021-04-29 06:49:01+00:00,161.4465,4.9,12.57,47.84626,-54.09684
2021-04-29 06:59:01+00:00,163.3865,4.9,12.57,47.84626,-54.09684
2021-04-29 07:09:01+00:00,163.0298,4.8,12.57,47.84626,-54.09684
2021-04-29 07:19:00+00:00,162.5049,4.89,12.57,47.84626,-54.09684
2021-04-29 07:29:00+00:00,168.5482,4.8,12.57,47.84626,-54.09684
2021-04-29 07:39:00+00:00,173.1565,4.8,12.57,47.84626,-54.09684
2021-04-29 07:49:00+00:00,173.8548,4.8,12.57,47.84626,-54.09684
2021-04-29 07:59:00+00:00,179.5798,4.8,12.57,47.84626,-54.09684
2021-04-29 08:09:00+00:00,185.6415,4.7,12.57,47.84626,-54.09684
2021-04-29 08:19:00+00:00,186.4698,4.71,12.57,47.84626,-54.09684
2021-04-29 08:29:00+00:00,188.2181,4.74,12.57,47.84626,-54.09684
2021-04-29 08:39:00+00:00,194.3165,4.75,12.57,47.84626,-54.09684
2021-04-29 08:49:00+00:00,197.1064,4.72,12.57,47.84626,-54.09684
2021-04-29 08:59:00+00:00,198.7398,4.7,12.57,47.84626,-54.09684
2021-04-29 09:09:00+00:00,202.6015,4.7,12.57,47.84626,-54.09684
2021-04-29 09:19:00+00:00,205.3581,4.7,12.49,47.84626,-54.09684
2021-04-29 09:29:00+00:00,210.8514,4.7,12.49,47.84626,-54.09684
2021-04-29 09:39:00+00:00,216.7881,4.7,12.49,47.84626,-54.09684
2021-04-29 09:49:00+00:00,223.4081,4.7,12.49,47.84626,-54.09684
2021-04-29 09:59:00+00:00,230.9448,4.7,12.49,47.84626,-54.09684
2021-04-29 10:09:00+00:00,236.0815,4.6,12.49,47.84626,-54.09684
2021-04-29 10:19:00+00:00,239.5497,4.6,12.57,47.84626,-54.09684
2021-04-29 10:29:00+00:00,245.0148,4.6,12.57,47.84626,-54.09684
2021-04-29 10:39:00+00:00,252.5731,4.6,12.57,47.84626,-54.09684
2021-04-29 10:49:00+00:00,259.1547,4.6,12.57,47.84626,-54.09684
2021-04-29 10:59:00+00:00,264.9731,4.6,12.57,47.84626,-54.09684
2021-04-29 11:09:00+00:00,273.5031,4.6,12.57,47.84626,-54.09684
2021-04-29 11:19:00+00:00,284.4947,4.5,12.97,47.84626,-54.09684
2021-04-29 11:29:00+00:00,294.373,4.57,12.97,47.84626,-54.09684
2021-04-29 11:39:00+00:00,303.9197,4.55,12.97,47.84626,-54.09684
2021-04-29 11:49:00+00:00,315.4929,4.51,12.97,47.84626,-54.09684
2021-04-29 11:59:00+00:00,327.3113,4.49,12.97,47.84626,-54.09684
2021-04-29 12:09:00+00:00,335.7879,4.3,12.97,47.84626,-54.09684
2021-04-29 12:19:01+00:00,342.7946,4.3,13.29,47.84626,-54.09684
2021-04-29 12:29:01+00:00,352.028,4.3,13.29,47.84626,-54.09684
2021-04-29 12:39:01+00:00,356.4562,4.3,13.29,47.84626,-54.09684
2021-04-29 12:49:01+00:00,355.1763,4.3,13.29,47.84626,-54.09684
2021-04-29 12:59:01+00:00,354.9196,4.3,13.29,47.84626,-54.09684
2021-04-29 13:09:01+00:00,358.80300000000005,4.29,13.29,47.84626,-54.09684
2021-04-29 13:19:01+00:00,359.403,4.26,13.6,47.84626,-54.09684
2021-04-29 13:29:01+00:00,358.8047,4.22,13.6,47.84626,-54.09684
2021-04-29 13:39:01+00:00,359.0364,4.2,13.6,47.84626,-54.09684
2021-04-29 13:49:01+00:00,360.9796,4.2,13.6,47.84626,-54.09684
2021-04-29 13:59:01+00:00,359.6963,4.2,13.6,47.84626,-54.09684
2021-04-29 14:09:01+00:00,355.9163,4.2,13.6,47.84626,-54.09684
2021-04-29 14:19:01+00:00,353.1413,4.2,14.24,47.84626,-54.09684
2021-04-29 14:29:01+00:00,352.0529,4.18,14.24,47.84626,-54.09684
2021-04-29 14:39:01+00:00,349.7313,4.12,14.24,47.84626,-54.09684
2021-04-29 14:49:01+00:00,343.2329,4.1,14.24,47.84626,-54.09684
2021-04-29 14:59:01+00:00,339.6329,4.1,14.24,47.84626,-54.09684
2021-04-29 15:09:01+00:00,336.963,4.1,14.24,47.84626,-54.09684
2021-04-29 15:19:01+00:00,330.0229,4.1,14.24,47.84626,-54.09684
2021-04-29 15:29:01+00:00,319.608,4.1,14.24,47.84626,-54.09684
2021-04-29 15:39:01+00:00,312.168,4.12,14.24,47.84626,-54.09684
2021-04-29 15:49:01+00:00,305.7013,4.16,14.24,47.84626,-54.09684
2021-04-29 15:59:01+00:00,296.7996,4.21,14.24,47.84626,-54.09684
2021-04-29 16:09:01+00:00,286.4163,4.3,14.24,47.84626,-54.09684
2021-04-29 16:19:01+00:00,278.3831,4.39,14.16,47.84626,-54.09684
2021-04-29 16:29:01+00:00,270.8698,4.4,14.16,47.84626,-54.09684
2021-04-29 16:39:01+00:00,259.9498,4.47,14.16,47.84626,-54.09684
2021-04-29 16:49:01+00:00,246.4714,4.5,14.16,47.84626,-54.09684
2021-04-29 16:59:01+00:00,232.8781,4.5,14.16,47.84626,-54.09684
2021-04-29 17:09:01+00:00,221.2364,4.53,14.16,47.84626,-54.09684
2021-04-29 17:19:01+00:00,208.8381,4.59,14.16,47.84626,-54.09684
2021-04-29 17:29:01+00:00,196.9882,4.6,14.16,47.84626,-54.09684
2021-04-29 17:39:01+00:00,187.2448,4.6,14.16,47.84626,-54.09684
2021-04-29 17:49:01+00:00,182.4865,4.6,14.16,47.84626,-54.09684
2021-04-29 17:59:01+00:00,177.0931,4.63,14.16,47.84626,-54.09684
2021-04-29 18:09:01+00:00,170.8948,4.65,14.16,47.84626,-54.09684
2021-04-29 18:19:00+00:00,168.0281,4.67,14.16,47.84626,-54.09684
2021-04-29 18:29:00+00:00,167.0015,4.7,14.16,47.84626,-54.09684
2021-04-29 18:39:00+00:00,166.0665,4.76,14.16,47.84626,-54.09684
2021-04-29 18:49:00+00:00,163.1315,4.8,14.16,47.84626,-54.09684
2021-04-29 18:59:00+00:00,161.8248,4.87,14.16,47.84626,-54.09684
2021-04-29 19:09:00+00:00,162.8982,4.89,14.16,47.84626,-54.09684
2021-04-29 19:19:01+00:00,163.2665,4.89,14.08,47.84626,-54.09684
2021-04-29 19:29:01+00:00,165.8365,4.89,14.08,47.84626,-54.09684
2021-04-29 19:39:01+00:00,171.5981,4.8,14.08,47.84626,-54.09684
2021-04-29 19:49:01+00:00,176.6381,4.84,14.08,47.84626,-54.09684
2021-04-29 19:59:01+00:00,179.8381,4.9,14.08,47.84626,-54.09684
2021-04-29 20:09:01+00:00,184.1381,4.92,14.08,47.84626,-54.09684
2021-04-29 20:19:01+00:00,191.4348,5.0,14.08,47.84626,-54.09684
2021-04-29 20:29:01+00:00,197.2931,5.08,14.08,47.84626,-54.09684
2021-04-29 20:39:01+00:00,200.6031,5.1,14.08,47.84626,-54.09684
2021-04-29 20:49:01+00:00,206.5165,5.1,14.08,47.84626,-54.09684
2021-04-29 20:59:01+00:00,210.6564,5.1,14.08,47.84626,-54.09684
2021-04-29 21:09:01+00:00,210.7948,5.1,14.08,47.84626,-54.09684
2021-04-29 21:19:01+00:00,214.5081,5.05,13.84,47.84626,-54.09684
2021-04-29 21:29:01+00:00,221.1531,5.0,13.84,47.84626,-54.09684
2021-04-29 21:39:01+00:00,223.5081,4.98,13.84,47.84626,-54.09684
2021-04-29 21:49:01+00:00,225.1631,4.97,13.84,47.84626,-54.09684
2021-04-29 21:59:01+00:00,231.218,5.0,13.84,47.84626,-54.09684
2021-04-29 22:09:01+00:00,238.7681,5.0,13.84,47.84626,-54.09684
2021-04-29 22:19:01+00:00,244.5181,5.0,13.6,47.84626,-54.09684
2021-04-29 22:29:01+00:00,254.5948,5.06,13.6,47.84626,-54.09684
2021-04-29 22:39:01+00:00,265.4597,5.1,13.6,47.84626,-54.09684
2021-04-29 22:49:01+00:00,275.1281,5.09,13.6,47.84626,-54.09684
2021-04-29 22:59:01+00:00,280.3847,5.03,13.6,47.84626,-54.09684
2021-04-29 23:09:01+00:00,287.8214,5.05,13.6,47.84626,-54.09684
2021-04-29 23:19:01+00:00,295.4313,5.05,13.21,47.84626,-54.09684
2021-04-29 23:29:01+00:00,305.9297,5.07,13.21,47.84626,-54.09684
2021-04-29 23:39:01+00:00,318.0613,5.05,13.21,47.84626,-54.09684
2021-04-29 23:49:01+00:00,331.1996,5.05,13.21,47.84626,-54.09684
2021-04-29 23:59:01+00:00,336.1364,5.0,13.21,47.84626,-54.09684
